Location: Hermaringen
(48.5952°N, 10.2585°E)
Time: 14:12:01
(UTC+00:00)

Cosmos 1943 Rocket - Visible Passes

Search period start: 14 February 2026 00:00
Search period end: 24 February 2026 00:00
Orbit: 811 x 842 km, 71.0° (Epoch: 13 February)

Date Brightness Start Highest point End Pass type
(mag) Time Alt. Az. Time Alt. Az. Time Alt. Az.
15 Feb 4.5 05:46:32 10° N 05:50:17 18° NE 05:54:03 10° E visible
16 Feb 4.5 05:27:01 10° N 05:30:31 17° NE 05:34:01 10° ENE visible
17 Feb 4.6 05:07:32 10° N 05:10:45 15° NE 05:13:58 10° ENE visible
18 Feb 4.6 04:48:04 10° N 04:50:58 14° NNE 04:53:52 10° ENE visible
19 Feb 4.7 04:28:37 10° N 04:31:11 13° NNE 04:33:45 10° ENE visible
20 Feb 4.8 04:09:13 10° N 04:11:23 12° NNE 04:13:32 10° NE visible
21 Feb 4.8 03:49:53 10° N 03:51:34 11° NNE 03:53:15 10° NE visible
21 Feb 3.6 05:31:49 10° NNW 05:37:02 37° NE 05:42:15 10° ESE visible
22 Feb 5.0 03:30:44 10° NNE 03:31:46 10° NNE 03:32:47 10° NE visible
22 Feb 3.8 05:12:14 10° NNW 05:17:20 34° NE 05:22:26 10° ESE visible
23 Feb 3.9 04:52:40 10° NNW 04:57:38 31° NE 05:02:36 10° ESE visible
